Weather in Kozhanka

Ukraine / Kyiv Region     49˚58′31″N   29˚46′02″E
temp.,
°C
wind,
m/s
gust,
m/s
humid.,
%
clouds,
%
prec.,
mm/h
press.,
hPa
HPBL,
m
1 december, tue
tue123:00−3˚nnw238790 0.0 102889
02:00−3˚n349068 0.0 1028132
05:00−3˚n36900 0.0 1028188
08:00−4˚n37900 0.0 1028222
11:00nne477221 0.0 1028520
14:00+1˚nne477150 0.0 1027572
17:00−1˚nne489689 0.1 1027375
20:00ne489891 0.3 1027354
2 december, wed
wed223:00ene3798100 0.1 1027318
02:00ne3599100 0.3 1027227
05:00ene3598100 0.4 1026259
08:00−1˚ene3596100 0.5 1027275
11:00e3592100 0.1 1027422
14:00e3596100 0.3 1026323
17:00e3698100 0.2 1026352
20:00−1˚e469799 0.6 1026332
3 december, thu
thu323:00−2˚e369894 0.2 1026151
02:00ese259896 0.3 1025204
05:00+1˚ese2599100 0.1 1025198
08:00+1˚ese3699100 0.2 1025239
11:00+1˚se4696100 0.0 1024406
14:00+2˚se3684100 0.0 1023597
17:00+2˚se488999 0.1 1023372
20:00sse489191 0.1 1023341
4 december, fri
fri423:00+1˚se598981 0.0 1022340
02:00+2˚se5118891 0.0 1021436
05:00+2˚se61284100 0.0 1021440
08:00+3˚se61383100 0.0 1021447
11:00+4˚se8137974 0.0 1021638
14:00+5˚se7127737 0.0 1019698
17:00+2˚se7129326 0.0 1020468
20:00+2˚se8129363 0.0 1020549
5 december, sat
sat523:00+4˚se81290100 0.0 1020607
02:00+4˚se71290100 0.0 1020607
05:00+4˚se71290100 0.0 1020634
08:00+4˚se71292100 0.1 1020533
11:00+4˚se81390100 0.4 1021547
14:00+4˚se71286100 0.8 1021573
17:00+4˚se7138694 0.0 1021522
20:00+3˚se8158696 0.0 1022470